Time,TemperatureF,DewpointF,PressureIn,WindDirection,WindDirectionDegrees,WindSpeedMPH,WindSpeedGustMPH,Humidity,HourlyPrecipIn,Conditions,Clouds,dailyrainin,SoftwareType,DateUTC
2013-03-07 00:00:00,37.6,33.4,30.02,NW,324,1.0,7.0,85,0.00,,,0.52,meteohub,2013-03-07 05:00:00,
2013-03-07 00:05:00,37.4,33.3,30.02,NNW,335,2.0,4.0,85,0.00,,,0.00,meteohub,2013-03-07 05:05:00,
2013-03-07 00:10:00,37.6,33.3,30.02,NW,304,2.0,6.0,84,0.00,,,0.00,meteohub,2013-03-07 05:10:00,
2013-03-07 00:15:00,37.6,32.9,30.02,NW,325,1.0,6.0,83,0.00,,,0.00,meteohub,2013-03-07 05:15:00,
2013-03-07 00:20:00,37.6,33.3,30.02,WNW,300,4.0,6.0,84,0.00,,,0.00,meteohub,2013-03-07 05:20:00,
2013-03-07 00:25:00,37.6,33.3,30.03,NW,317,1.0,5.0,84,0.01,,,0.01,meteohub,2013-03-07 05:25:00,
2013-03-07 00:30:00,37.6,33.3,30.03,NW,325,0.0,5.0,84,0.01,,,0.01,meteohub,2013-03-07 05:30:00,
2013-03-07 00:35:00,37.6,33.3,30.03,NNW,340,1.0,5.0,84,0.01,,,0.01,meteohub,2013-03-07 05:35:00,
2013-03-07 00:40:00,37.6,33.3,30.03,NNW,343,3.0,4.0,84,0.01,,,0.01,meteohub,2013-03-07 05:40:00,
2013-03-07 00:45:00,37.6,32.5,30.03,NNW,333,3.0,6.0,82,0.01,,,0.01,meteohub,2013-03-07 05:45:00,
2013-03-07 00:50:00,37.8,32.7,30.03,NNW,340,2.0,6.0,82,0.01,,,0.01,meteohub,2013-03-07 05:50:00,
2013-03-07 00:55:00,37.9,33.3,30.03,NW,319,2.0,6.0,83,0.01,,,0.01,meteohub,2013-03-07 05:55:00,
2013-03-07 01:00:00,37.8,32.7,30.03,NW,319,1.0,6.0,82,0.01,,,0.01,meteohub,2013-03-07 06:00:00,
2013-03-07 01:05:00,37.8,32.5,30.03,NNW,345,2.0,6.0,81,0.01,,,0.01,meteohub,2013-03-07 06:05:00,
2013-03-07 01:10:00,37.9,32.7,30.03,NW,320,1.0,6.0,81,0.01,,,0.01,meteohub,2013-03-07 06:10:00,
2013-03-07 01:15:00,37.9,32.7,30.03,NW,316,3.0,7.0,81,0.01,,,0.01,meteohub,2013-03-07 06:15:00,
2013-03-07 01:20:00,37.9,32.7,30.03,NNW,327,2.0,7.0,81,0.00,,,0.01,meteohub,2013-03-07 06:20:00,
2013-03-07 01:25:00,37.9,32.7,30.03,NW,323,1.0,7.0,81,0.00,,,0.01,meteohub,2013-03-07 06:25:00,
2013-03-07 01:30:00,37.9,32.4,30.03,NNW,327,2.0,7.0,80,0.00,,,0.01,meteohub,2013-03-07 06:30:00,
2013-03-07 01:35:00,37.9,32.7,30.03,North,355,3.0,7.0,81,0.00,,,0.01,meteohub,2013-03-07 06:35:00,
2013-03-07 01:40:00,37.9,32.4,30.03,WNW,301,3.0,6.0,80,0.01,,,0.02,meteohub,2013-03-07 06:40:00,
2013-03-07 01:45:00,37.9,32.4,30.03,NNW,348,2.0,6.0,80,0.01,,,0.02,meteohub,2013-03-07 06:45:00,
2013-03-07 01:50:00,37.9,32.4,30.03,NW,318,2.0,5.0,80,0.01,,,0.02,meteohub,2013-03-07 06:50:00,
2013-03-07 01:56:00,37.9,32.0,30.03,NNW,341,3.0,7.0,79,0.01,,,0.02,meteohub,2013-03-07 06:56:00,
2013-03-07 02:01:00,37.9,32.0,30.03,NW,313,1.0,7.0,79,0.01,,,0.02,meteohub,2013-03-07 07:01:00,
2013-03-07 02:06:00,37.9,32.4,30.03,North,349,3.0,7.0,80,0.01,,,0.02,meteohub,2013-03-07 07:06:00,
2013-03-07 02:11:00,37.9,31.6,30.03,NNW,346,1.0,7.0,78,0.01,,,0.02,meteohub,2013-03-07 07:11:00,
2013-03-07 02:16:00,37.9,32.0,30.03,NNW,332,1.0,7.0,79,0.01,,,0.02,meteohub,2013-03-07 07:16:00,
2013-03-07 02:21:00,37.8,31.8,30.03,NNW,335,3.0,7.0,79,0.01,,,0.02,meteohub,2013-03-07 07:21:00,
2013-03-07 02:26:00,37.6,31.6,30.03,NW,317,4.0,7.0,79,0.01,,,0.02,meteohub,2013-03-07 07:26:00,
2013-03-07 02:31:00,37.4,31.5,30.02,NW,317,4.0,6.0,79,0.01,,,0.02,meteohub,2013-03-07 07:31:00,
2013-03-07 02:36:00,37.2,31.3,30.02,NNW,341,2.0,6.0,79,0.00,,,0.02,meteohub,2013-03-07 07:36:00,
2013-03-07 02:38:00,37.2,31.6,30.03,NW,323,3.0,6.0,80,0.00,,,0.02,meteohub,2013-03-07 07:38:00,
2013-03-07 02:45:00,37.0,31.5,30.03,NW,310,1.0,7.0,80,0.00,,,0.02,meteohub,2013-03-07 07:45:00,
2013-03-07 02:52:00,36.9,31.3,30.03,WNW,286,2.0,7.0,80,0.00,,,0.02,meteohub,2013-03-07 07:52:00,
2013-03-07 02:57:00,36.5,30.9,30.04,WNW,300,3.0,6.0,80,0.00,,,0.02,meteohub,2013-03-07 07:57:00,
2013-03-07 03:02:00,36.7,30.7,30.04,NNW,327,3.0,6.0,79,0.00,,,0.02,meteohub,2013-03-07 08:02:00,
2013-03-07 03:09:00,36.7,31.1,30.04,WNW,284,0.0,7.0,80,0.00,,,0.02,meteohub,2013-03-07 08:09:00,
2013-03-07 03:17:00,36.3,30.7,30.04,NW,312,1.0,7.0,80,0.00,,,0.02,meteohub,2013-03-07 08:17:00,
2013-03-07 03:22:00,36.1,30.9,30.04,North,355,1.0,6.0,81,0.00,,,0.02,meteohub,2013-03-07 08:22:00,
2013-03-07 03:26:00,36.0,30.7,30.04,NW,321,1.0,6.0,81,0.00,,,0.02,meteohub,2013-03-07 08:26:00,
2013-03-07 03:32:00,36.0,30.7,30.04,NW,317,1.0,6.0,81,0.00,,,0.02,meteohub,2013-03-07 08:32:00,
2013-03-07 03:40:00,35.8,30.6,30.05,North,0,2.0,4.0,81,0.00,,,0.02,meteohub,2013-03-07 08:40:00,
2013-03-07 03:45:00,35.8,30.6,30.05,NNW,327,3.0,4.0,81,0.00,,,0.02,meteohub,2013-03-07 08:45:00,
2013-03-07 03:50:00,35.8,30.7,30.05,NW,311,1.0,4.0,82,0.00,,,0.02,meteohub,2013-03-07 08:50:00,
2013-03-07 03:55:00,35.4,30.6,30.05,NNW,346,3.0,4.0,82,0.00,,,0.02,meteohub,2013-03-07 08:55:00,
2013-03-07 04:02:00,35.4,30.6,30.06,NNW,347,2.0,4.0,82,0.00,,,0.02,meteohub,2013-03-07 09:02:00,
2013-03-07 04:07:00,35.4,30.2,30.06,NNW,327,2.0,4.0,81,0.00,,,0.02,meteohub,2013-03-07 09:07:00,
2013-03-07 04:12:00,35.6,30.4,30.06,NW,306,2.0,6.0,81,0.00,,,0.02,meteohub,2013-03-07 09:12:00,
2013-03-07 04:17:00,35.6,30.4,30.06,North,9,1.0,6.0,81,0.00,,,0.02,meteohub,2013-03-07 09:17:00,
2013-03-07 04:22:00,35.6,30.4,30.06,NNW,333,1.0,6.0,81,0.00,,,0.02,meteohub,2013-03-07 09:22:00,
2013-03-07 04:27:00,35.4,30.2,30.06,NNW,332,1.0,5.0,81,0.00,,,0.02,meteohub,2013-03-07 09:27:00,
2013-03-07 04:33:00,35.2,30.0,30.06,WNW,302,2.0,5.0,81,0.00,,,0.02,meteohub,2013-03-07 09:33:00,
2013-03-07 04:38:00,35.2,30.4,30.06,NNW,333,2.0,5.0,82,0.00,,,0.02,meteohub,2013-03-07 09:38:00,
2013-03-07 04:43:00,35.1,30.2,30.06,NW,317,2.0,4.0,82,0.00,,,0.02,meteohub,2013-03-07 09:43:00,
2013-03-07 04:49:00,35.1,30.2,30.06,NNW,339,1.0,3.0,82,0.00,,,0.02,meteohub,2013-03-07 09:49:00,
2013-03-07 04:54:00,34.9,30.2,30.06,NW,319,1.0,4.0,83,0.00,,,0.02,meteohub,2013-03-07 09:54:00,
2013-03-07 05:01:00,34.9,30.2,30.06,North,355,1.0,4.0,83,0.00,,,0.02,meteohub,2013-03-07 10:01:00,
2013-03-07 05:07:00,34.9,30.6,30.06,NW,314,0.0,4.0,84,0.00,,,0.02,meteohub,2013-03-07 10:07:00,
2013-03-07 05:12:00,34.7,30.4,30.07,NW,317,2.0,4.0,84,0.00,,,0.02,meteohub,2013-03-07 10:12:00,
2013-03-07 05:17:00,34.5,30.2,30.07,NW,324,2.0,3.0,84,0.00,,,0.02,meteohub,2013-03-07 10:17:00,
2013-03-07 05:22:00,34.3,30.4,30.07,NNW,330,1.0,3.0,85,0.00,,,0.02,meteohub,2013-03-07 10:22:00,
2013-03-07 05:27:00,34.5,30.6,30.07,NNW,329,0.0,3.0,85,0.00,,,0.02,meteohub,2013-03-07 10:27:00,
2013-03-07 05:32:00,34.5,30.7,30.08,NW,323,3.0,3.0,86,0.00,,,0.02,meteohub,2013-03-07 10:32:00,
2013-03-07 05:37:00,34.7,30.7,30.08,NW,323,0.0,3.0,85,0.00,,,0.02,meteohub,2013-03-07 10:37:00,
2013-03-07 05:42:00,34.7,30.7,30.08,NW,323,0.0,3.0,85,0.00,,,0.02,meteohub,2013-03-07 10:42:00,
2013-03-07 05:49:00,34.7,30.7,30.08,NW,323,1.0,3.0,85,0.00,,,0.02,meteohub,2013-03-07 10:49:00,
2013-03-07 05:54:00,34.9,30.6,30.08,NNW,331,0.0,3.0,84,0.00,,,0.02,meteohub,2013-03-07 10:54:00,
2013-03-07 05:59:00,35.2,30.6,30.08,NNW,331,0.0,3.0,83,0.00,,,0.02,meteohub,2013-03-07 10:59:00,
2013-03-07 06:04:00,35.4,30.6,30.08,NNW,347,1.0,6.0,82,0.00,,,0.02,meteohub,2013-03-07 11:04:00,
2013-03-07 06:09:00,35.6,30.7,30.08,NNW,327,2.0,6.0,82,0.00,,,0.02,meteohub,2013-03-07 11:09:00,
2013-03-07 06:14:00,35.8,30.2,30.08,NW,321,2.0,6.0,80,0.00,,,0.02,meteohub,2013-03-07 11:14:00,
2013-03-07 06:22:00,35.8,29.7,30.08,NW,318,2.0,5.0,78,0.00,,,0.02,meteohub,2013-03-07 11:22:00,
2013-03-07 06:27:00,36.1,29.7,30.08,NNW,330,2.0,6.0,77,0.00,,,0.02,meteohub,2013-03-07 11:27:00,
2013-03-07 06:32:00,36.7,29.1,30.08,NW,319,4.0,7.0,74,0.00,,,0.02,meteohub,2013-03-07 11:32:00,
2013-03-07 06:37:00,37.0,29.1,30.08,NW,318,2.0,7.0,73,0.00,,,0.02,meteohub,2013-03-07 11:37:00,
2013-03-07 06:42:00,37.2,29.3,30.08,NW,310,1.0,7.0,73,0.00,,,0.02,meteohub,2013-03-07 11:42:00,
2013-03-07 06:47:00,37.2,29.3,30.08,NW,325,3.0,7.0,73,0.00,,,0.02,meteohub,2013-03-07 11:47:00,
2013-03-07 06:54:00,37.2,29.3,30.09,NNW,346,1.0,5.0,73,0.00,,,0.02,meteohub,2013-03-07 11:54:00,
2013-03-07 06:59:00,37.2,29.1,30.09,NW,324,5.0,8.0,72,0.00,,,0.02,meteohub,2013-03-07 11:59:00,
2013-03-07 07:04:00,37.4,28.9,30.09,NNW,346,1.0,8.0,71,0.00,,,0.02,meteohub,2013-03-07 12:04:00,
2013-03-07 07:09:00,37.4,29.1,30.09,NW,325,3.0,8.0,72,0.00,,,0.02,meteohub,2013-03-07 12:09:00,
2013-03-07 07:15:00,37.2,29.1,30.09,North,351,1.0,8.0,72,0.00,,,0.02,meteohub,2013-03-07 12:15:00,
2013-03-07 07:20:00,36.9,28.4,30.10,NW,324,2.0,4.0,71,0.00,,,0.02,meteohub,2013-03-07 12:20:00,
2013-03-07 07:26:00,36.9,28.4,30.10,NW,323,2.0,4.0,71,0.00,,,0.02,meteohub,2013-03-07 12:26:00,
2013-03-07 07:31:00,37.0,28.9,30.09,WNW,300,3.0,6.0,72,0.00,,,0.02,meteohub,2013-03-07 12:31:00,
2013-03-07 07:36:00,37.2,28.8,30.10,NNW,334,1.0,6.0,71,0.00,,,0.02,meteohub,2013-03-07 12:36:00,
2013-03-07 07:42:00,37.6,29.1,30.10,NNW,333,3.0,5.0,71,0.00,,,0.02,meteohub,2013-03-07 12:42:00,
2013-03-07 07:47:00,37.8,29.1,30.10,NNW,336,4.0,5.0,71,0.00,,,0.02,meteohub,2013-03-07 12:47:00,
2013-03-07 07:52:00,37.9,29.1,30.10,NW,313,2.0,5.0,70,0.00,,,0.02,meteohub,2013-03-07 12:52:00,
2013-03-07 07:57:00,38.1,29.1,30.10,West,264,2.0,6.0,70,0.00,,,0.02,meteohub,2013-03-07 12:57:00,
2013-03-07 08:02:00,38.5,29.1,30.11,NW,320,3.0,6.0,69,0.00,,,0.02,meteohub,2013-03-07 13:02:00,
2013-03-07 08:07:00,38.7,29.7,30.11,NW,310,2.0,6.0,70,0.00,,,0.02,meteohub,2013-03-07 13:07:00,
2013-03-07 08:12:00,38.8,29.5,30.11,NW,319,3.0,4.0,69,0.00,,,0.02,meteohub,2013-03-07 13:12:00,
2013-03-07 08:17:00,39.4,29.3,30.11,NW,304,3.0,4.0,67,0.00,,,0.02,meteohub,2013-03-07 13:17:00,
2013-03-07 08:22:00,39.7,29.7,30.11,NNW,329,1.0,6.0,67,0.00,,,0.02,meteohub,2013-03-07 13:22:00,
2013-03-07 08:27:00,40.3,29.8,30.12,NW,324,0.0,6.0,66,0.00,,,0.02,meteohub,2013-03-07 13:27:00,
2013-03-07 08:32:00,40.8,30.0,30.12,NNW,329,3.0,6.0,65,0.00,,,0.02,meteohub,2013-03-07 13:32:00,
2013-03-07 08:37:00,41.4,29.7,30.12,NW,317,5.0,5.0,63,0.00,,,0.02,meteohub,2013-03-07 13:37:00,
2013-03-07 08:42:00,41.7,28.9,30.12,NW,314,2.0,9.0,60,0.01,,,0.03,meteohub,2013-03-07 13:42:00,
2013-03-07 08:47:00,42.3,29.8,30.12,NNW,346,3.0,9.0,61,0.01,,,0.03,meteohub,2013-03-07 13:47:00,
2013-03-07 08:52:00,42.3,28.9,30.12,NNW,341,3.0,7.0,59,0.01,,,0.03,meteohub,2013-03-07 13:52:00,
2013-03-07 08:59:00,42.6,28.9,30.13,WNW,296,2.0,8.0,58,0.01,,,0.03,meteohub,2013-03-07 13:59:00,
2013-03-07 09:04:00,43.3,29.1,30.13,NNW,342,8.0,8.0,57,0.02,,,0.04,meteohub,2013-03-07 14:04:00,
2013-03-07 09:09:00,43.3,30.0,30.13,NNW,338,2.0,6.0,59,0.02,,,0.04,meteohub,2013-03-07 14:09:00,
2013-03-07 09:15:00,43.5,29.3,30.13,North,349,2.0,8.0,57,0.02,,,0.04,meteohub,2013-03-07 14:15:00,
2013-03-07 09:20:00,43.7,29.5,30.13,WNW,301,5.0,10.0,57,0.02,,,0.04,meteohub,2013-03-07 14:20:00,
2013-03-07 09:26:00,43.9,29.7,30.13,NW,323,4.0,10.0,57,0.02,,,0.04,meteohub,2013-03-07 14:26:00,
2013-03-07 09:32:00,44.8,29.7,30.13,NW,313,3.0,7.0,55,0.03,,,0.05,meteohub,2013-03-07 14:32:00,
2013-03-07 09:37:00,45.0,30.2,30.13,NW,325,3.0,7.0,56,0.03,,,0.05,meteohub,2013-03-07 14:37:00,
2013-03-07 09:42:00,45.0,29.3,30.13,NNW,338,6.0,7.0,54,0.02,,,0.05,meteohub,2013-03-07 14:42:00,
2013-03-07 09:47:00,44.2,29.1,30.13,NW,322,2.0,10.0,55,0.02,,,0.05,meteohub,2013-03-07 14:47:00,
2013-03-07 09:52:00,43.9,28.4,30.13,NNW,347,4.0,10.0,54,0.02,,,0.05,meteohub,2013-03-07 14:52:00,
2013-03-07 09:57:00,44.1,29.3,30.13,NW,323,5.0,12.0,56,0.02,,,0.05,meteohub,2013-03-07 14:57:00,
2013-03-07 10:02:00,44.2,28.2,30.13,NNW,341,4.0,12.0,53,0.01,,,0.05,meteohub,2013-03-07 15:02:00,
2013-03-07 10:07:00,44.2,28.6,30.13,North,0,4.0,10.0,54,0.01,,,0.05,meteohub,2013-03-07 15:07:00,
2013-03-07 10:12:00,44.4,28.4,30.13,NW,311,5.0,10.0,53,0.01,,,0.05,meteohub,2013-03-07 15:12:00,
2013-03-07 10:17:00,44.4,29.7,30.13,NNW,348,3.0,11.0,56,0.01,,,0.05,meteohub,2013-03-07 15:17:00,
2013-03-07 10:22:00,45.0,28.4,30.13,NNW,344,5.0,11.0,52,0.01,,,0.05,meteohub,2013-03-07 15:22:00,
2013-03-07 10:27:00,45.1,30.0,30.13,NW,313,5.0,11.0,55,0.01,,,0.05,meteohub,2013-03-07 15:27:00,
2013-03-07 10:32:00,45.9,31.1,30.13,NW,326,2.0,11.0,56,0.00,,,0.05,meteohub,2013-03-07 15:32:00,
2013-03-07 10:40:00,46.0,28.4,30.13,NE,43,1.0,8.0,50,0.00,,,0.05,meteohub,2013-03-07 15:40:00,
2013-03-07 10:45:00,46.2,30.6,30.13,North,350,3.0,8.0,54,0.00,,,0.05,meteohub,2013-03-07 15:45:00,
2013-03-07 10:50:00,46.6,31.3,30.13,NNW,327,2.0,9.0,55,0.00,,,0.05,meteohub,2013-03-07 15:50:00,
2013-03-07 10:55:00,47.1,31.8,30.13,NNW,338,6.0,9.0,55,0.00,,,0.05,meteohub,2013-03-07 15:55:00,
2013-03-07 11:00:00,47.5,30.2,30.13,NNW,334,2.0,9.0,51,0.00,,,0.05,meteohub,2013-03-07 16:00:00,
2013-03-07 11:07:00,47.7,29.5,30.13,NNW,332,5.0,9.0,49,0.00,,,0.05,meteohub,2013-03-07 16:07:00,
2013-03-07 11:12:00,47.7,30.9,30.13,SW,218,4.0,8.0,52,0.00,,,0.05,meteohub,2013-03-07 16:12:00,
2013-03-07 11:17:00,47.7,28.9,30.13,WSW,252,3.0,7.0,48,0.00,,,0.05,meteohub,2013-03-07 16:17:00,
2013-03-07 11:22:00,47.1,27.9,30.13,NNW,345,5.0,11.0,47,0.00,,,0.05,meteohub,2013-03-07 16:22:00,
2013-03-07 11:27:00,47.1,29.5,30.13,NW,319,6.0,12.0,50,0.00,,,0.05,meteohub,2013-03-07 16:27:00,
2013-03-07 11:32:00,47.5,29.8,30.13,NNW,340,2.0,12.0,50,0.00,,,0.05,meteohub,2013-03-07 16:32:00,
2013-03-07 11:37:00,47.5,28.8,30.12,WNW,283,3.0,12.0,48,0.00,,,0.05,meteohub,2013-03-07 16:37:00,
2013-03-07 11:42:00,47.8,29.1,30.12,North,355,2.0,10.0,48,0.00,,,0.05,meteohub,2013-03-07 16:42:00,
2013-03-07 11:47:00,48.0,28.8,30.12,NNW,340,3.0,10.0,47,0.00,,,0.05,meteohub,2013-03-07 16:47:00,
2013-03-07 11:52:00,48.4,30.0,30.12,North,9,4.0,10.0,49,0.00,,,0.05,meteohub,2013-03-07 16:52:00,
2013-03-07 11:57:00,48.7,29.5,30.12,NNW,340,3.0,10.0,47,0.00,,,0.05,meteohub,2013-03-07 16:57:00,
2013-03-07 12:02:00,48.9,30.0,30.12,NNW,347,3.0,9.0,48,0.01,,,0.06,meteohub,2013-03-07 17:02:00,
2013-03-07 12:07:00,48.9,32.5,30.12,North,351,5.0,9.0,53,0.01,,,0.06,meteohub,2013-03-07 17:07:00,
2013-03-07 12:12:00,49.3,31.5,30.12,North,355,4.0,10.0,50,0.01,,,0.06,meteohub,2013-03-07 17:12:00,
2013-03-07 12:19:00,49.5,30.6,30.12,West,273,5.0,10.0,48,0.01,,,0.06,meteohub,2013-03-07 17:19:00,
2013-03-07 12:24:00,48.9,29.7,30.12,NNW,329,3.0,11.0,47,0.01,,,0.06,meteohub,2013-03-07 17:24:00,
2013-03-07 12:29:00,48.9,29.7,30.12,East,88,3.0,11.0,47,0.01,,,0.06,meteohub,2013-03-07 17:29:00,
2013-03-07 12:34:00,48.4,29.1,30.12,North,350,3.0,11.0,47,0.01,,,0.06,meteohub,2013-03-07 17:34:00,
2013-03-07 12:40:00,48.0,29.3,30.12,NNW,329,3.0,11.0,48,0.01,,,0.06,meteohub,2013-03-07 17:40:00,
2013-03-07 12:47:00,48.2,30.4,30.12,NW,322,8.0,11.0,50,0.01,,,0.06,meteohub,2013-03-07 17:47:00,
2013-03-07 12:52:00,48.0,29.3,30.12,NNW,330,9.0,11.0,48,0.01,,,0.06,meteohub,2013-03-07 17:52:00,
2013-03-07 12:57:00,48.7,29.5,30.11,NNW,327,10.0,11.0,47,0.00,,,0.06,meteohub,2013-03-07 17:57:00,
2013-03-07 13:02:00,48.9,29.1,30.12,WNW,303,3.0,11.0,46,0.00,,,0.06,meteohub,2013-03-07 18:02:00,
2013-03-07 13:07:00,48.6,29.3,30.11,WNW,296,4.0,11.0,47,0.00,,,0.06,meteohub,2013-03-07 18:07:00,
2013-03-07 13:12:00,47.7,27.9,30.11,NNW,336,5.0,12.0,46,0.00,,,0.06,meteohub,2013-03-07 18:12:00,
2013-03-07 13:19:00,47.5,28.2,30.11,NW,315,8.0,12.0,47,0.00,,,0.06,meteohub,2013-03-07 18:19:00,
2013-03-07 13:27:00,48.4,29.7,30.11,NNW,327,4.0,12.0,48,0.00,,,0.06,meteohub,2013-03-07 18:27:00,
2013-03-07 13:32:00,47.8,28.6,30.11,NW,320,2.0,12.0,47,0.00,,,0.06,meteohub,2013-03-07 18:32:00,
2013-03-07 13:37:00,47.1,27.9,30.11,NE,38,2.0,9.0,47,0.00,,,0.06,meteohub,2013-03-07 18:37:00,
2013-03-07 13:42:00,47.8,29.7,30.11,NW,313,5.0,12.0,49,0.00,,,0.06,meteohub,2013-03-07 18:42:00,
2013-03-07 13:47:00,47.8,28.0,30.10,WNW,302,4.0,12.0,46,0.00,,,0.06,meteohub,2013-03-07 18:47:00,
2013-03-07 13:55:00,47.8,29.1,30.10,WNW,285,6.0,12.0,48,0.00,,,0.06,meteohub,2013-03-07 18:55:00,
2013-03-07 14:00:00,47.3,28.6,30.10,NW,309,4.0,9.0,48,0.00,,,0.06,meteohub,2013-03-07 19:00:00,
2013-03-07 14:05:00,47.7,28.4,30.10,North,349,4.0,8.0,47,0.00,,,0.06,meteohub,2013-03-07 19:05:00,
2013-03-07 14:12:00,47.8,29.7,30.10,NNW,335,7.0,13.0,49,0.00,,,0.06,meteohub,2013-03-07 19:12:00,
2013-03-07 14:17:00,47.8,27.5,30.10,NW,317,4.0,13.0,45,0.00,,,0.06,meteohub,2013-03-07 19:17:00,
2013-03-07 14:22:00,47.7,27.9,30.10,NW,313,4.0,13.0,46,0.00,,,0.06,meteohub,2013-03-07 19:22:00,
2013-03-07 14:27:00,47.8,29.1,30.10,NNW,327,1.0,11.0,48,0.00,,,0.06,meteohub,2013-03-07 19:27:00,
2013-03-07 14:32:00,47.8,28.0,30.10,NNW,342,4.0,11.0,46,0.00,,,0.06,meteohub,2013-03-07 19:32:00,
2013-03-07 14:37:00,47.8,28.6,30.10,NNW,345,4.0,9.0,47,0.00,,,0.06,meteohub,2013-03-07 19:37:00,
2013-03-07 14:42:00,48.6,29.3,30.09,NNW,339,7.0,9.0,47,0.00,,,0.06,meteohub,2013-03-07 19:42:00,
2013-03-07 14:47:00,48.4,29.1,30.10,NE,34,2.0,14.0,47,0.00,,,0.06,meteohub,2013-03-07 19:47:00,
2013-03-07 14:52:00,48.0,27.7,30.10,WSW,258,4.0,14.0,45,0.00,,,0.06,meteohub,2013-03-07 19:52:00,
2013-03-07 14:57:00,47.8,28.0,30.10,NNW,341,4.0,15.0,46,0.00,,,0.06,meteohub,2013-03-07 19:57:00,
2013-03-07 15:04:00,47.7,27.9,30.10,West,268,3.0,15.0,46,0.00,,,0.06,meteohub,2013-03-07 20:04:00,
2013-03-07 15:09:00,49.5,31.1,30.10,NNW,336,4.0,14.0,49,0.00,,,0.06,meteohub,2013-03-07 20:09:00,
2013-03-07 15:14:00,49.8,29.8,30.10,NNW,331,2.0,11.0,46,0.00,,,0.06,meteohub,2013-03-07 20:14:00,
2013-03-07 15:19:00,49.3,27.7,30.10,NNW,331,5.0,11.0,43,0.00,,,0.06,meteohub,2013-03-07 20:19:00,
2013-03-07 15:24:00,48.9,28.6,30.10,North,355,8.0,10.0,45,0.00,,,0.06,meteohub,2013-03-07 20:24:00,
2013-03-07 15:29:00,48.6,28.8,30.10,WNW,288,5.0,16.0,46,0.00,,,0.06,meteohub,2013-03-07 20:29:00,
2013-03-07 15:34:00,48.6,28.2,30.10,NNW,331,5.0,16.0,45,0.00,,,0.06,meteohub,2013-03-07 20:34:00,
2013-03-07 15:39:00,48.4,28.0,30.10,WNW,290,7.0,16.0,45,0.00,,,0.06,meteohub,2013-03-07 20:39:00,
2013-03-07 15:44:00,48.4,27.5,30.11,NW,317,8.0,13.0,44,0.00,,,0.06,meteohub,2013-03-07 20:44:00,
2013-03-07 15:49:00,47.8,28.0,30.10,North,5,4.0,15.0,46,0.00,,,0.06,meteohub,2013-03-07 20:49:00,
2013-03-07 15:56:00,47.8,28.0,30.11,NNW,348,3.0,15.0,46,0.00,,,0.06,meteohub,2013-03-07 20:56:00,
2013-03-07 16:02:00,47.7,28.4,30.10,NNW,347,8.0,12.0,47,0.00,,,0.06,meteohub,2013-03-07 21:02:00,
2013-03-07 16:07:00,47.5,27.7,30.10,NNW,331,6.0,13.0,46,0.00,,,0.06,meteohub,2013-03-07 21:07:00,
2013-03-07 16:12:00,46.9,28.2,30.11,NNW,327,7.0,13.0,48,0.00,,,0.06,meteohub,2013-03-07 21:12:00,
2013-03-07 16:17:00,46.9,28.2,30.10,NW,317,6.0,13.0,48,0.00,,,0.06,meteohub,2013-03-07 21:17:00,
2013-03-07 16:22:00,46.9,28.2,30.10,NW,326,6.0,11.0,48,0.00,,,0.06,meteohub,2013-03-07 21:22:00,
2013-03-07 16:27:00,46.8,28.0,30.11,NNW,340,4.0,15.0,48,0.00,,,0.06,meteohub,2013-03-07 21:27:00,
2013-03-07 16:32:00,46.6,28.9,30.11,NW,304,3.0,15.0,50,0.00,,,0.06,meteohub,2013-03-07 21:32:00,
2013-03-07 16:37:00,46.2,28.6,30.11,NNW,337,1.0,12.0,50,0.00,,,0.06,meteohub,2013-03-07 21:37:00,
2013-03-07 16:42:00,46.0,28.4,30.11,NW,308,6.0,13.0,50,0.00,,,0.06,meteohub,2013-03-07 21:42:00,
2013-03-07 16:47:00,46.0,28.9,30.11,NW,323,3.0,13.0,51,0.00,,,0.06,meteohub,2013-03-07 21:47:00,
2013-03-07 16:52:00,45.9,28.8,30.11,WNW,290,2.0,13.0,51,0.00,,,0.06,meteohub,2013-03-07 21:52:00,
2013-03-07 16:57:00,45.7,29.1,30.11,NNW,337,0.0,13.0,52,0.00,,,0.06,meteohub,2013-03-07 21:57:00,
2013-03-07 17:02:00,45.7,29.1,30.11,NW,317,4.0,7.0,52,0.00,,,0.06,meteohub,2013-03-07 22:02:00,
2013-03-07 17:07:00,45.9,28.8,30.12,NW,310,2.0,5.0,51,0.00,,,0.06,meteohub,2013-03-07 22:07:00,
2013-03-07 17:12:00,46.0,28.9,30.12,NNW,327,5.0,9.0,51,0.00,,,0.06,meteohub,2013-03-07 22:12:00,
2013-03-07 17:17:00,46.0,28.4,30.12,NNW,329,2.0,10.0,50,0.00,,,0.06,meteohub,2013-03-07 22:17:00,
2013-03-07 17:22:00,45.9,29.3,30.12,WNW,292,3.0,12.0,52,0.00,,,0.06,meteohub,2013-03-07 22:22:00,
2013-03-07 17:27:00,45.9,29.3,30.12,North,355,3.0,12.0,52,0.00,,,0.06,meteohub,2013-03-07 22:27:00,
2013-03-07 17:32:00,45.7,29.5,30.12,NW,309,1.0,12.0,53,0.00,,,0.06,meteohub,2013-03-07 22:32:00,
2013-03-07 17:37:00,45.7,29.5,30.12,NW,325,3.0,8.0,53,0.00,,,0.06,meteohub,2013-03-07 22:37:00,
2013-03-07 17:42:00,45.5,29.3,30.12,NNW,327,3.0,8.0,53,0.00,,,0.06,meteohub,2013-03-07 22:42:00,
2013-03-07 17:47:00,45.3,29.7,30.13,NNW,344,9.0,10.0,54,0.00,,,0.06,meteohub,2013-03-07 22:47:00,
2013-03-07 17:52:00,45.3,29.1,30.13,NNW,337,3.0,10.0,53,0.00,,,0.06,meteohub,2013-03-07 22:52:00,
2013-03-07 17:57:00,45.1,29.5,30.13,NNW,327,2.0,10.0,54,0.00,,,0.06,meteohub,2013-03-07 22:57:00,
2013-03-07 18:02:00,45.1,29.5,30.13,NW,318,3.0,10.0,54,0.00,,,0.06,meteohub,2013-03-07 23:02:00,
2013-03-07 18:07:00,45.0,29.3,30.13,WNW,296,3.0,8.0,54,0.00,,,0.06,meteohub,2013-03-07 23:07:00,
2013-03-07 18:12:00,45.0,29.3,30.14,NW,323,8.0,8.0,54,0.00,,,0.06,meteohub,2013-03-07 23:12:00,
2013-03-07 18:17:00,44.6,28.9,30.14,NNW,338,3.0,12.0,54,0.00,,,0.06,meteohub,2013-03-07 23:17:00,
2013-03-07 18:22:00,44.2,29.1,30.14,NNW,345,4.0,12.0,55,0.00,,,0.06,meteohub,2013-03-07 23:22:00,
2013-03-07 18:27:00,44.1,28.9,30.15,NW,323,4.0,12.0,55,0.00,,,0.06,meteohub,2013-03-07 23:27:00,
2013-03-07 18:32:00,43.9,28.8,30.15,WNW,300,4.0,9.0,55,0.00,,,0.06,meteohub,2013-03-07 23:32:00,
2013-03-07 18:37:00,43.7,29.1,30.15,NNW,346,2.0,10.0,56,0.00,,,0.06,meteohub,2013-03-07 23:37:00,
2013-03-07 18:42:00,43.3,28.8,30.15,NW,323,5.0,10.0,56,0.00,,,0.06,meteohub,2013-03-07 23:42:00,
2013-03-07 18:47:00,43.3,29.1,30.15,NNW,335,2.0,9.0,57,0.00,,,0.06,meteohub,2013-03-07 23:47:00,
2013-03-07 18:52:00,43.2,29.3,30.15,NW,319,3.0,9.0,58,0.00,,,0.06,meteohub,2013-03-07 23:52:00,
2013-03-07 18:57:00,42.8,29.1,30.16,NW,311,6.0,9.0,58,0.00,,,0.06,meteohub,2013-03-07 23:57:00,
2013-03-07 19:02:00,43.0,29.3,30.15,NW,318,2.0,8.0,58,0.00,,,0.06,meteohub,2013-03-08 00:02:00,
2013-03-07 19:07:00,42.8,29.1,30.16,NW,324,3.0,10.0,58,0.00,,,0.06,meteohub,2013-03-08 00:07:00,
2013-03-07 19:12:00,42.8,29.8,30.16,NW,315,3.0,10.0,60,0.00,,,0.06,meteohub,2013-03-08 00:12:00,
2013-03-07 19:17:00,42.4,29.5,30.16,NNW,348,5.0,8.0,60,0.00,,,0.06,meteohub,2013-03-08 00:17:00,
2013-03-07 19:22:00,42.3,29.3,30.16,WNW,290,3.0,7.0,60,0.00,,,0.06,meteohub,2013-03-08 00:22:00,
2013-03-07 19:27:00,42.4,29.5,30.16,NW,312,3.0,8.0,60,0.00,,,0.06,meteohub,2013-03-08 00:27:00,
2013-03-07 19:32:00,42.4,29.5,30.16,NW,324,2.0,8.0,60,0.00,,,0.06,meteohub,2013-03-08 00:32:00,
2013-03-07 19:37:00,42.4,29.5,30.16,NW,325,2.0,8.0,60,0.00,,,0.06,meteohub,2013-03-08 00:37:00,
2013-03-07 19:42:00,42.3,29.8,30.16,NW,306,3.0,7.0,61,0.00,,,0.06,meteohub,2013-03-08 00:42:00,
2013-03-07 19:47:00,42.1,30.0,30.17,WNW,300,1.0,6.0,62,0.00,,,0.06,meteohub,2013-03-08 00:47:00,
2013-03-07 19:52:00,41.9,29.8,30.17,NNW,333,5.0,6.0,62,0.00,,,0.06,meteohub,2013-03-08 00:52:00,
2013-03-07 19:57:00,41.7,29.7,30.17,NNW,333,1.0,8.0,62,0.00,,,0.06,meteohub,2013-03-08 00:57:00,
2013-03-07 20:02:00,41.5,29.8,30.17,NNW,327,2.0,8.0,63,0.00,,,0.06,meteohub,2013-03-08 01:02:00,
2013-03-07 20:07:00,41.4,29.7,30.17,WNW,290,2.0,5.0,63,0.00,,,0.06,meteohub,2013-03-08 01:07:00,
2013-03-07 20:12:00,41.4,30.0,30.17,NNW,331,2.0,5.0,64,0.00,,,0.06,meteohub,2013-03-08 01:12:00,
2013-03-07 20:17:00,41.2,30.0,30.17,NW,314,2.0,5.0,64,0.00,,,0.06,meteohub,2013-03-08 01:17:00,
2013-03-07 20:22:00,41.0,29.8,30.17,NW,321,3.0,6.0,64,0.00,,,0.06,meteohub,2013-03-08 01:22:00,
2013-03-07 20:27:00,40.8,29.7,30.17,NW,304,3.0,6.0,64,0.00,,,0.06,meteohub,2013-03-08 01:27:00,
2013-03-07 20:32:00,40.8,30.0,30.17,NW,305,3.0,6.0,65,0.00,,,0.06,meteohub,2013-03-08 01:32:00,
2013-03-07 20:37:00,40.6,29.8,30.17,NNW,336,3.0,5.0,65,0.00,,,0.06,meteohub,2013-03-08 01:37:00,
2013-03-07 20:42:00,40.6,30.2,30.17,NW,306,2.0,5.0,66,0.00,,,0.06,meteohub,2013-03-08 01:42:00,
2013-03-07 20:47:00,40.5,30.0,30.17,NW,317,1.0,5.0,66,0.00,,,0.06,meteohub,2013-03-08 01:47:00,
2013-03-07 20:52:00,40.3,29.8,30.17,NW,310,3.0,5.0,66,0.00,,,0.06,meteohub,2013-03-08 01:52:00,
2013-03-07 20:57:00,40.5,30.4,30.17,NW,325,4.0,5.0,67,0.00,,,0.06,meteohub,2013-03-08 01:57:00,
2013-03-07 21:02:00,40.5,30.0,30.17,NW,321,2.0,6.0,66,0.00,,,0.06,meteohub,2013-03-08 02:02:00,
2013-03-07 21:07:00,40.3,30.2,30.17,NW,305,2.0,6.0,67,0.00,,,0.06,meteohub,2013-03-08 02:07:00,
2013-03-07 21:12:00,40.3,30.2,30.17,NNW,327,1.0,6.0,67,0.00,,,0.06,meteohub,2013-03-08 02:12:00,
2013-03-07 21:17:00,39.9,29.8,30.17,NNW,342,2.0,5.0,67,0.00,,,0.06,meteohub,2013-03-08 02:17:00,
2013-03-07 21:22:00,39.7,30.0,30.17,NNW,331,2.0,5.0,68,0.00,,,0.06,meteohub,2013-03-08 02:22:00,
2013-03-07 21:27:00,39.7,30.0,30.17,North,350,1.0,5.0,68,0.00,,,0.06,meteohub,2013-03-08 02:27:00,
2013-03-07 21:32:00,39.6,30.2,30.17,NNW,327,2.0,5.0,69,0.00,,,0.06,meteohub,2013-03-08 02:32:00,
2013-03-07 21:37:00,39.6,29.8,30.17,West,277,1.0,5.0,68,0.00,,,0.06,meteohub,2013-03-08 02:37:00,
2013-03-07 21:42:00,39.4,30.0,30.17,WNW,284,2.0,5.0,69,0.00,,,0.06,meteohub,2013-03-08 02:42:00,
2013-03-07 21:50:00,39.4,29.7,30.17,NW,311,0.0,6.0,68,0.00,,,0.06,meteohub,2013-03-08 02:50:00,
2013-03-07 21:56:00,39.4,30.0,30.17,West,279,1.0,6.0,69,0.00,,,0.06,meteohub,2013-03-08 02:56:00,
2013-03-07 22:01:00,39.2,29.8,30.17,NW,304,2.0,6.0,69,0.00,,,0.06,meteohub,2013-03-08 03:01:00,
2013-03-07 22:07:00,39.0,29.7,30.17,WNW,302,3.0,6.0,69,0.00,,,0.06,meteohub,2013-03-08 03:07:00,
2013-03-07 22:12:00,39.0,29.7,30.17,WNW,300,2.0,6.0,69,0.00,,,0.06,meteohub,2013-03-08 03:12:00,
2013-03-07 22:17:00,38.8,29.8,30.17,WNW,293,2.0,6.0,70,0.00,,,0.06,meteohub,2013-03-08 03:17:00,
2013-03-07 22:22:00,38.8,29.8,30.17,NNW,344,3.0,5.0,70,0.00,,,0.06,meteohub,2013-03-08 03:22:00,
2013-03-07 22:27:00,38.8,29.8,30.17,WNW,285,1.0,5.0,70,0.00,,,0.06,meteohub,2013-03-08 03:27:00,
2013-03-07 22:35:00,38.8,29.8,30.17,WNW,301,0.0,5.0,70,0.00,,,0.06,meteohub,2013-03-08 03:35:00,
2013-03-07 22:40:00,38.7,29.7,30.17,WNW,302,1.0,5.0,70,0.00,,,0.06,meteohub,2013-03-08 03:40:00,
2013-03-07 22:45:00,38.7,30.0,30.17,NW,305,1.0,5.0,71,0.00,,,0.06,meteohub,2013-03-08 03:45:00,
2013-03-07 22:52:00,38.5,29.8,30.17,NW,317,3.0,5.0,71,0.00,,,0.06,meteohub,2013-03-08 03:52:00,
2013-03-07 22:57:00,38.5,30.2,30.17,WNW,294,2.0,5.0,72,0.00,,,0.06,meteohub,2013-03-08 03:57:00,
2013-03-07 23:02:00,38.1,29.8,30.17,NW,312,0.0,5.0,72,0.00,,,0.06,meteohub,2013-03-08 04:02:00,
2013-03-07 23:07:00,37.9,29.7,30.17,NNW,340,1.0,5.0,72,0.00,,,0.06,meteohub,2013-03-08 04:07:00,
2013-03-07 23:12:00,37.9,30.0,30.17,NW,315,1.0,5.0,73,0.00,,,0.06,meteohub,2013-03-08 04:12:00,
2013-03-07 23:17:00,37.8,29.8,30.17,NW,325,1.0,5.0,73,0.00,,,0.06,meteohub,2013-03-08 04:17:00,
2013-03-07 23:22:00,37.8,29.8,30.17,NW,318,1.0,3.0,73,0.00,,,0.06,meteohub,2013-03-08 04:22:00,
2013-03-07 23:27:00,37.8,29.8,30.17,NNW,340,2.0,3.0,73,0.00,,,0.06,meteohub,2013-03-08 04:27:00,
2013-03-07 23:32:00,37.8,29.8,30.17,NW,315,2.0,5.0,73,0.00,,,0.06,meteohub,2013-03-08 04:32:00,
2013-03-07 23:37:00,37.8,29.8,30.17,WNW,295,2.0,5.0,73,0.00,,,0.06,meteohub,2013-03-08 04:37:00,
2013-03-07 23:42:00,37.6,29.7,30.17,NW,305,3.0,5.0,73,0.00,,,0.06,meteohub,2013-03-08 04:42:00,
2013-03-07 23:47:00,37.4,29.5,30.17,WNW,300,0.0,4.0,73,0.00,,,0.06,meteohub,2013-03-08 04:47:00,
2013-03-07 23:52:00,37.2,29.3,30.17,WNW,284,1.0,4.0,73,0.00,,,0.06,meteohub,2013-03-08 04:52:00,